EW6336 Weather Reports


Display with metric or nautical units.
time (UTC)temp
F
wind
direction
speed
MPH
gust
MPH
rain 1hr
in
rain 24hr
in
rain mn
in
humidity
%
barometer
mb
20260902125517 84 225 4.0 7.0 0.00 0.00 0.00 74 1019.5
20260902124517 84 203 4.0 7.0 0.00 0.00 0.00 74 1019.6
20260902123517 83 225 4.0 8.0 0.00 0.00 0.00 75 1019.8
20260902122517 83 203 4.0 8.0 0.00 0.00 0.00 75 1019.9
20260902121517 84 203 3.0 7.0 0.00 0.00 0.00 73 1020.0
20260902120517 83 248 5.0 10.0 0.00 0.00 0.00 73 1020.1
20260902115517 83 203 6.0 10.0 0.00 0.00 0.00 73 1020.2
20260902114517 84 225 4.0 9.0 0.00 0.00 0.00 71 1020.2
20260902113517 83 203 3.0 8.0 0.00 0.00 0.00 73 1020.3
20260902112537 83 180 4.0 9.0 0.00 0.00 0.00 72 1020.2
20260902111517 83 203 5.0 9.0 0.00 0.00 0.00 73 1020.0
20260902110637 84 203 4.0 10.0 0.00 0.00 0.00 72 1020.1
20260902105537 83 180 5.0 10.0 0.00 0.00 0.00 72 1020.0
20260902104517 83 180 4.0 8.0 0.00 0.00 0.00 73 1020.0
20260902103517 83 180 4.0 8.0 0.00 0.00 0.00 73 1020.0
20260902102516 83 225 4.0 8.0 0.00 0.00 0.00 73 1020.0
20260902101517 83 225 3.0 8.0 0.00 0.00 0.00 73 1019.9
20260902100517 82 158 2.0 6.0 0.00 0.00 0.00 75 1019.9
20260902095517 82 225 2.0 6.0 0.00 0.00 0.00 76 1019.9
20260902094536 81 203 2.0 6.0 0.00 0.00 0.00 77 1020.0
20260902093516 81 180 3.0 6.0 0.00 0.00 0.00 77 1020.0
20260902092517 81 180 3.0 6.0 0.00 0.00 0.00 75 1019.9
20260902091557 81 180 3.0 5.0 0.00 0.00 0.00 76 1019.8
20260902090517 80 270 2.0 7.0 0.00 0.00 0.00 77 1019.6
20260902085516 81 225 2.0 4.0 0.00 0.00 0.00 76 1019.5
20260902084516 81 248 2.0 6.0 0.00 0.00 0.00 76 1019.2
20260902083516 81 158 2.0 6.0 0.00 0.00 0.00 75 1019.0
20260902082516 81 180 2.0 5.0 0.00 0.00 0.00 76 1018.8
20260902081536 80 158 2.0 4.0 0.00 0.00 0.00 76 1018.5
20260902080516 80 270 1.0 4.0 0.00 0.00 0.00 78 1018.3
20260902075516 79 270 1.0 3.0 0.00 0.00 0.00 79 1018.2
20260902074516 78 203 1.0 3.0 0.00 0.00 0.00 81 1018.2
20260902073517 78 203 1.0 2.0 0.00 0.00 0.00 81 1018.2
20260902072516 78 158 2.0 4.0 0.00 0.00 0.00 79 1018.2
20260902071516 79 180 2.0 5.0 0.00 0.00 0.00 78 1018.1
20260902070516 79 0.0 1.0 0.00 0.00 0.00 77 1017.9
20260902065516 79 315 1.0 3.0 0.00 0.00 0.00 78 1017.9
20260902064516 78 315 2.0 4.0 0.00 0.00 0.00 79 1017.7
20260902063516 78 338 2.0 4.0 0.00 0.00 0.00 80 1017.6
20260902062516 77 248 1.0 3.0 0.00 0.00 0.00 82 1017.6
20260902061516 77 68 1.0 3.0 0.00 0.00 0.00 82 1017.5
20260902060516 77 315 1.0 4.0 0.00 0.00 0.00 83 1017.3
20260902055516 77 315 3.0 5.0 0.00 0.00 0.00 84 1017.2
20260902054516 76 338 2.0 3.0 0.00 0.00 0.00 84 1017.4
20260902053516 76 0.0 3.0 0.00 0.00 0.00 84 1017.4
20260902052516 76 68 1.0 4.0 0.00 0.00 0.00 85 1017.6
20260902051516 76 0.0 2.0 0.00 0.00 0.00 85 1017.4
20260902050556 76 0.0 2.0 0.00 0.00 0.00 85 1017.2
20260902045516 76 0.0 1.0 0.00 0.00 0.00 86 1017.3
20260902044516 76 315 1.0 2.0 0.00 0.00 0.00 86 1017.4
20260902043516 76 0.0 1.0 0.00 0.00 0.00 86 1017.6
20260902042516 76 0.0 0.0 0.00 0.00 0.00 86 1017.8
20260902041516 76 0.0 1.0 0.00 0.00 0.00 86 1018.0
20260902040536 76 0.0 2.0 0.00 0.00 0.00 86 1018.0
20260902035516 76 270 1.0 2.0 0.00 0.00 0.00 85 1018.0
20260902034516 76 203 2.0 6.0 0.00 0.00 0.00 85 1018.0
20260902033516 77 293 2.0 6.0 0.00 0.00 0.00 84 1017.9
20260902032515 77 203 3.0 4.0 0.00 0.00 0.00 83 1017.9
20260902031516 77 248 1.0 3.0 0.00 0.00 0.00 83 1017.9
20260902030516 77 203 2.0 5.0 0.00 0.00 0.00 82 1017.8
20260902025515 78 180 2.0 3.0 0.00 0.00 0.00 82 1017.6
20260902024515 78 158 1.0 2.0 0.00 0.00 0.00 81 1017.5
20260902023515 78 113 3.0 5.0 0.00 0.00 0.00 80 1017.6
20260902022515 79 113 2.0 4.0 0.00 0.00 0.00 79 1017.4
20260902021515 79 270 1.0 2.0 0.00 0.00 0.00 79 1017.4
20260902020516 79 0.0 2.0 0.00 0.00 0.00 79 1017.5
20260902015516 79 270 1.0 3.0 0.00 0.00 0.00 79 1017.7
20260902014515 79 270 1.0 2.0 0.00 0.00 0.00 79 1017.6
20260902013516 80 248 2.0 4.0 0.00 0.00 0.00 79 1017.6
20260902012516 80 180 2.0 4.0 0.00 0.00 0.00 78 1017.5
20260902011535 80 135 2.0 5.0 0.00 0.00 0.00 79 1017.4
20260902010516 80 158 1.0 3.0 0.00 0.00 0.00 80 1017.4
20260902005515 79 158 1.0 3.0 0.00 0.00 0.00 80 1017.7
20260902004515 79 315 3.0 8.0 0.00 0.00 0.00 81 1017.7
20260902003515 79 248 1.0 3.0 0.00 0.00 0.00 82 1018.1
20260902002515 79 0.0 2.0 0.00 0.00 0.00 81 1018.3
20260902001515 79 248 1.0 3.0 0.00 0.00 0.00 81 1018.5
20260902000515 80 225 2.0 4.0 0.00 0.00 0.00 80 1018.6
20260901235537 80 203 2.0 4.0 0.00 0.00 0.00 79 1018.7
20260901234517 80 0.0 2.0 0.00 0.00 0.00 79 1018.5
20260901233516 80 113 1.0 2.0 0.00 0.00 0.00 79 1018.4
20260901232517 80 113 1.0 3.0 0.00 0.00 0.00 79 1018.5
20260901231517 80 338 1.0 3.0 0.00 0.00 0.00 79 1018.4
20260901230517 80 315 1.0 5.0 0.00 0.00 0.00 79 1018.3
20260901225516 80 0.0 2.0 0.00 0.00 0.00 79 1018.5
20260901224516 80 0.0 1.0 0.00 0.00 0.00 79 1018.4
20260901223517 80 0.0 2.0 0.00 0.00 0.00 79 1018.4
20260901222516 80 315 2.0 4.0 0.00 0.00 0.00 79 1018.4
20260901221516 80 0.0 2.0 0.00 0.00 0.00 79 1018.6
20260901220516 80 0.0 1.0 0.00 0.00 0.00 78 1018.8
20260901215516 80 203 1.0 4.0 0.00 0.00 0.00 77 1018.9
20260901214516 81 293 1.0 3.0 0.00 0.00 0.00 77 1018.9
20260901213516 81 225 2.0 4.0 0.00 0.00 0.00 77 1019.0
20260901212516 81 248 2.0 5.0 0.00 0.00 0.00 76 1019.0
20260901211516 81 248 2.0 4.0 0.00 0.00 0.00 76 1018.9
20260901210516 81 225 2.0 4.0 0.00 0.00 0.00 76 1018.8
20260901205516 80 225 2.0 4.0 0.00 0.00 0.00 76 1018.9
20260901204516 80 203 1.0 3.0 0.00 0.00 0.00 76 1018.7
20260901203516 80 248 2.0 5.0 0.00 0.00 0.00 76 1018.6
20260901202516 80 203 2.0 5.0 0.00 0.00 0.00 77 1018.4
20260901201516 80 203 3.0 7.0 0.00 0.00 0.00 77 1018.3
20260901200516 80 225 3.0 5.0 0.00 0.00 0.00 77 1018.0
20260901195536 80 225 3.0 6.0 0.00 0.00 0.00 76 1017.8
20260901194516 81 203 4.0 7.0 0.00 0.00 0.00 75 1017.4
20260901193516 81 225 4.0 10.0 0.00 0.00 0.00 74 1017.2
20260901192516 82 180 2.0 6.0 0.00 0.00 0.00 73 1016.9
20260901191516 82 203 3.0 6.0 0.00 0.00 0.00 72 1016.6
20260901190516 82 203 2.0 5.0 0.00 0.00 0.00 72 1016.3
20260901185516 82 203 3.0 6.0 0.00 0.00 0.00 72 1016.0
20260901184556 83 225 2.0 6.0 0.00 0.00 0.00 71 1015.6
20260901183516 83 225 2.0 3.0 0.00 0.00 0.00 71 1015.5
20260901182516 83 180 1.0 3.0 0.00 0.00 0.00 71 1015.5
20260901181516 83 180 2.0 4.0 0.00 0.00 0.00 70 1015.5
20260901180516 85 270 2.0 5.0 0.00 0.00 0.00 67 1015.5
20260901175516 86 270 2.0 3.0 0.00 0.00 0.00 66 1015.6
20260901174516 86 180 3.0 7.0 0.00 0.00 0.00 65 1015.7
20260901173516 87 135 5.0 11.0 0.00 0.00 0.00 64 1015.4
20260901172535 87 113 4.0 9.0 0.00 0.00 0.00 64 1015.3
20260901171515 88 113 5.0 12.0 0.00 0.00 0.00 63 1015.2
20260901170515 88 135 5.0 10.0 0.00 0.00 0.00 63 1015.2
20260901165515 88 135 4.0 9.0 0.00 0.00 0.00 63 1015.1
20260901164516 89 135 4.0 10.0 0.00 0.00 0.00 62 1015.1
20260901163516 88 135 3.0 7.0 0.00 0.00 0.00 64 1015.0
20260901162535 87 180 2.0 5.0 0.00 0.00 0.00 65 1015.0
20260901161516 88 135 3.0 7.0 0.00 0.00 0.00 64 1015.1
20260901160516 88 248 3.0 10.0 0.00 0.00 0.00 63 1015.2
20260901155515 88 158 6.0 13.0 0.00 0.00 0.00 63 1015.2
20260901154536 88 180 2.0 6.0 0.00 0.00 0.00 63 1015.1
20260901153515 87 203 4.0 7.0 0.00 0.00 0.00 64 1015.1
20260901152516 87 180 4.0 11.0 0.00 0.00 0.00 63 1015.3
20260901151516 88 180 2.0 5.0 0.00 0.00 0.00 63 1015.2
20260901150515 88 158 3.0 7.0 0.00 0.00 0.00 62 1015.2
20260901145515 88 270 3.0 7.0 0.00 0.00 0.00 61 1015.2
20260901144515 90 248 3.0 6.0 0.00 0.00 0.00 59 1015.1
20260901143515 89 158 5.0 9.0 0.00 0.00 0.00 60 1015.1
20260901142515 89 158 5.0 10.0 0.00 0.00 0.00 59 1015.2
20260901141515 89 135 7.0 13.0 0.00 0.00 0.00 60 1015.4
20260901140515 89 135 9.0 13.0 0.00 0.00 0.00 59 1015.6
20260901135517 90 135 8.0 14.0 0.00 0.00 0.00 58 1015.6
20260901134557 90 135 8.0 16.0 0.00 0.00 0.00 59 1015.6
20260901133517 89 135 8.0 12.0 0.00 0.00 0.00 61 1015.8
20260901132517 89 135 7.0 14.0 0.00 0.00 0.00 61 1015.9
20260901131517 89 135 9.0 16.0 0.00 0.00 0.00 59 1016.1
20260901130517 90 135 8.0 14.0 0.00 0.00 0.00 58 1016.1